USA 40 R/B DEB, 23159

Orbit data source: Space-Track

USA 40 R/B DEB, 23159 is space debris in LEO originally from a launch on Tue, 08 Aug 1989 UTC launched from the Air Force Eastern Test Range (AFETR). Debris objects in space refer to the collection of defunct objects orbiting the Earth. Examples of debris include non-operational satellites, rocket bodies, and fragments generated from explosions, collisions, or faulty payload assembly.

Loading next visibility...
Identifier
23159, 1989-061N
Orbit
LEO
Country
Flag of USUS
Related business
Manufacturer
Unknown
Mission
Spacecraft
Bus & Motor
Unknown
Mass
Unknown
Launch date (UTC)
1989-08-08 (37 years ago)
Launch vehicle
Unknown
Launch site
Air Force Eastern Test Range (AFETR)
Object type
Payload
Rocket body
Debris
Shape & HBR
Unknown shape, 0.1 m
Radar Cross Section
Medium (>0.1 m² and <1 m²)

Expand to show TLE details & history
Last TLE update: 3 days ago

TLE from 3 days ago
0 USA 40 R/B DEB
1 23159U 89061N   26170.76670750  .00033284  00000-0  70336-2 0  9999
2 23159  56.9457 324.5751 1561419  60.4416 314.3010 11.95087747259347
Epoch: 2026-06-19T18:24Z
TLE epoch observation values (Epoch: 2026-06-19T18:24:03.528Z)
Latitude
-0.00006°
Longitude
140.5694°
Altitude
941.559 km
Speed
7.722 km/s
True Right ascension
21h 38m 18s
True Declination
0° 00' 00"
Sunlit
Object was in full shadow at epoch
Visualization orbit readout
Latitude
Unknown
Longitude
Unknown
Altitude
Unknown
Speed
Unknown
Apparent Right ascension
Unknown
Apparent Declination
Unknown
Sunlit
N/A
Visualization observer readout
Local Sidereal Time
02:14:45
Azimuth
Unknown
Elevation
Unknown
Doppler factor
Unknown
Orbital elements
Apogee altitude
2,964.376 km
Perigee altitude
440.884 km
Semi-major axis
8,080.767 km
Eccentricity
0.15614
Inclination
56.9457°
RAAN
324.5751°
Arg. of periapsis
60.4416°
True anomaly
299.65328°
Mean anomaly
314.301°
Eccentric anomaly
307.17242°
Mean motion
2.98789 °/min
Orbital period
120.49 mins
BSTAR
0.0070336
Loading maneuver chart data...
Computing Atmospheric mass density...
Loading historical data...
Loading historical data...
Loading historical data...
Loading historical data...
Loading historical data...
Loading historical data...
Loading historical data...

Documentation

Showing up to 5 results
|